Theta_e
334 334 333 334 335 334 335 333 333 335 334 334 333 332 333 336 341 342 341 341 339 339 340 338 337 338 337 338 339 339 339 337 337 337 337 336 336 334 334 333 332 331 330 326 322 324 326 325 325 324 323 324 325 326 327 328 328 328 328 327 326 326 325 324 323 322 321 320 319 319 319 318 317 317
335 334 333 333 335 335 335 335 335 334 333 334 334 333 332 334 338 339 341 341 337 335 337 335 334 335 334 336 338 339 339 338 338 338 337 337 335 334 334 334 333 331 331 329 325 324 326 326 326 325 323 323 324 324 326 328 328 329 328 328 327 326 326 325 324 323 322 321 320 320 319 318 318 317
333 335 334 333 335 335 336 337 339 337 335 336 336 335 335 335 336 336 338 341 338 333 334 333 332 333 333 335 338 339 340 339 339 338 338 337 335 334 334 334 334 332 331 331 328 325 325 326 327 326 324 322 323 325 327 327 328 328 328 328 327 327 326 325 324 323 323 322 321 320 320 319 318 318
330 333 334 334 335 335 336 338 340 339 335 334 333 334 336 336 336 335 336 340 339 334 333 333 332 332 333 334 337 339 340 340 339 339 338 337 336 335 334 334 334 334 332 331 331 328 325 325 326 326 325 322 321 324 328 328 327 327 328 328 328 327 327 326 325 324 324 323 322 321 320 319 319 318
329 331 333 334 334 335 335 337 341 340 335 333 333 333 335 336 336 336 336 338 337 334 333 332 332 332 331 333 335 337 339 339 339 339 337 337 336 335 334 334 333 334 334 333 332 331 329 326 324 325 325 324 322 323 326 328 327 327 326 327 328 328 327 327 326 325 325 324 323 322 321 320 319 319
329 330 332 333 332 334 335 335 339 340 336 336 335 334 335 337 337 337 337 337 337 336 335 333 333 331 330 331 331 333 337 339 338 339 338 338 337 337 336 335 335 334 334 334 333 333 331 330 327 325 324 324 324 323 324 325 327 327 326 326 326 327 327 327 326 326 325 325 324 324 323 321 320 319
325 328 331 332 331 332 333 333 335 335 334 334 334 334 336 337 337 336 336 336 337 337 336 335 334 333 331 331 331 331 334 337 338 338 338 338 339 338 338 337 336 335 334 334 333 334 333 332 331 329 327 325 324 324 323 324 325 325 325 325 325 326 327 327 326 327 326 326 325 325 324 323 322 320
323 327 330 331 330 330 331 333 334 333 333 334 334 334 335 335 335 334 334 334 335 336 337 336 335 334 333 332 332 331 332 335 338 337 337 338 339 339 339 339 338 337 336 335 334 334 334 333 332 331 330 328 327 325 324 323 324 324 324 324 324 325 325 326 326 326 326 326 326 326 325 325 324 323
325 328 329 329 331 332 332 333 333 333 334 334 335 334 334 333 333 332 333 332 332 334 335 334 334 334 334 334 333 333 332 333 337 338 338 338 339 339 340 339 338 338 338 337 336 335 335 334 334 333 332 331 330 328 327 326 325 325 325 325 324 324 324 325 325 325 326 326 326 326 326 326 325 325
324 328 329 328 330 334 334 333 333 333 333 333 333 333 333 333 332 333 333 332 331 333 334 334 333 333 334 334 334 334 333 333 335 337 337 338 338 339 339 339 339 338 337 337 337 336 336 335 335 335 334 333 332 331 330 329 327 326 326 326 325 324 324 323 324 324 324 324 325 325 325 325 325 325
325 328 329 328 328 332 335 333 332 332 332 332 333 332 333 334 334 333 333 333 332 332 333 333 333 333 333 333 333 334 333 333 333 335 335 335 336 337 338 339 338 338 338 337 337 336 336 335 335 335 335 334 334 333 332 331 330 329 327 327 326 326 325 325 324 324 324 323 323 323 323 324 324 325
326 326 328 328 328 331 333 332 331 332 332 332 332 332 333 334 335 335 334 334 334 333 333 333 333 332 332 332 332 333 332 332 332 334 334 334 334 336 337 337 338 338 338 338 337 336 335 335 335 334 334 334 334 334 334 333 332 331 330 329 328 327 327 326 326 326 326 325 324 324 324 323 323 324
327 326 327 329 329 330 331 330 329 330 330 331 331 332 333 334 335 335 334 334 334 333 332 332 333 333 332 332 332 332 332 332 332 333 334 334 334 335 336 337 338 338 338 338 337 337 336 336 336 335 335 334 334 334 334 334 333 333 332 331 330 329 329 328 327 327 327 327 326 326 326 325 325 324
326 326 326 327 327 327 327 327 327 327 327 328 329 330 331 332 333 334 334 334 334 333 333 333 333 333 333 332 332 332 332 333 334 334 334 335 336 336 334 335 336 337 338 339 339 338 338 337 337 337 336 336 335 335 335 334 333 333 333 333 332 331 331 330 329 329 328 328 327 327 327 327 326 326
324 325 325 325 325 325 326 326 327 327 327 327 327 328 329 329 329 330 331 333 334 334 334 334 334 335 334 334 333 332 332 333 333 334 334 335 338 336 333 333 335 335 336 338 339 339 338 337 337 337 337 337 336 336 335 335 335 334 333 333 333 333 333 332 331 331 330 329 329 328 328 327 327 327
322 323 324 324 324 324 325 325 325 324 325 326 326 327 327 326 325 325 326 328 329 331 333 334 335 335 334 335 334 333 333 332 332 333 333 334 336 335 332 332 333 334 334 334 335 337 337 336 336 335 335 335 334 334 334 335 336 336 335 334 332 332 333 333 333 333 332 331 331 330 330 329 328 328
320 321 322 323 324 324 325 325 325 324 324 324 324 325 326 326 326 326 325 325 325 325 327 331 333 333 334 335 336 335 334 334 333 333 332 333 334 334 333 333 333 334 333 332 333 334 334 334 335 335 333 332 332 333 334 336 337 337 337 336 334 332 332 332 333 333 333 333 333 332 331 331 330 330
320 320 321 322 323 323 324 324 324 325 325 326 326 326 326 327 327 328 328 327 326 325 324 325 326 327 328 331 332 333 335 334 333 333 333 333 333 333 333 334 334 334 334 333 333 334 334 333 335 335 332 330 331 332 333 336 337 338 337 337 335 334 333 332 332 332 333 333 333 333 333 333 332 332
321 321 321 322 322 322 322 321 321 322 323 324 325 325 325 325 325 326 327 327 329 329 328 327 326 326 325 326 326 328 330 332 331 331 332 332 332 332 333 333 334 335 335 335 334 334 334 334 335 334 331 330 333 333 333 335 337 338 338 337 336 336 335 334 333 333 333 332 332 333 333 333 333 333
322 322 322 322 322 321 321 320 320 320 320 321 323 323 323 323 323 323 323 323 325 327 328 327 327 327 327 327 327 326 327 328 328 328 329 329 330 331 332 332 333 335 335 335 335 334 334 334 334 334 333 332 334 335 334 335 336 338 338 338 337 336 336 335 335 335 334 334 334 333 333 332 332 332
322 321 322 322 321 320 320 320 320 320 320 320 320 322 323 323 323 323 323 323 323 324 324 325 325 325 325 326 326 325 325 325 325 327 328 329 329 331 332 332 333 334 334 334 335 334 334 334 334 334 335 335 336 335 335 335 336 337 337 337 337 337 336 336 336 336 336 335 335 335 334 334 333 332
319 319 319 318 317 317 317 317 318 319 318 317 317 318 319 320 321 322 323 322 323 323 323 324 324 324 325 325 325 326 326 326 326 327 328 328 329 330 330 330 330 331 331 332 334 335 335 334 334 335 335 335 336 336 336 337 337 336 336 337 337 337 337 337 336 336 336 336 336 336 335 335 335 333
317 317 316 315 314 314 314 314 315 315 315 315 315 314 315 316 318 319 320 320 320 320 320 321 321 321 322 323 324 325 326 326 327 327 327 328 328 329 329 328 328 328 328 328 330 334 335 335 335 335 334 334 335 335 335 336 336 335 334 334 335 336 336 336 336 336 336 336 335 336 336 336 336 334
315 316 315 314 313 313 313 313 313 314 314 314 313 313 313 314 315 316 316 316 315 315 316 316 318 319 320 321 322 323 324 324 325 325 327 328 329 329 329 329 328 328 328 327 328 331 332 332 334 333 332 332 332 331 331 333 333 333 332 332 332 333 334 335 336 336 336 336 336 336 336 336 336 335
313 313 312 312 312 312 313 313 314 314 314 313 313 313 313 313 313 313 313 313 313 312 313 314 315 317 318 319 321 322 322 322 322 323 325 327 328 329 330 329 328 328 328 328 328 328 329 329 330 331 330 331 330 329 330 330 331 331 331 331 332 332 332 333 334 334 334 335 335 336 336 336 336 335
311 310 310 311 311 312 312 313 313 313 313 314 314 314 314 314 314 314 313 313 312 312 313 314 315 315 316 317 318 319 320 320 321 321 322 323 325 326 326 327 327 327 327 326 325 326 327 327 328 328 329 330 330 329 329 329 330 330 330 331 331 331 331 331 331 332 332 332 333 334 336 336 336 336
310 310 311 311 311 311 311 311 311 311 311 312 312 312 312 313 314 314 313 313 312 313 313 314 315 315 316 316 317 318 319 320 321 321 322 322 322 323 323 324 325 326 326 325 324 325 326 326 327 328 329 329 330 329 328 328 329 330 330 331 331 331 331 330 331 331 331 331 331 331 334 336 336 336
309 309 310 310 310 310 309 309 308 308 308 308 308 309 310 311 312 312 312 312 312 313 314 315 315 316 317 317 318 318 319 319 320 321 321 322 322 322 322 322 323 323 323 324 326 327 327 328 328 328 328 329 329 329 328 329 330 330 330 331 330 330 330 330 330 330 330 331 330 331 332 334 334 334
308 308 308 308 309 309 309 308 308 308 307 307 307 307 307 308 308 309 310 310 310 311 312 312 313 314 315 315 316 316 317 318 318 319 319 319 320 320 320 320 320 320 321 322 324 325 326 326 326 325 325 326 326 327 328 329 330 330 330 330 330 330 329 329 330 330 330 330 330 331 332 333 333 333
308 308 308 308 308 308 309 309 308 308 308 307 307 307 307 306 306 306 307 308 307 307 307 308 309 310 311 312 313 314 315 315 316 316 316 316 317 318 318 319 319 320 321 321 322 322 322 322 322 322 323 323 324 324 325 327 328 328 328 327 328 328 329 329 330 330 330 330 330 330 331 331 332 332
308 309 309 309 309 309 309 309 309 309 309 308 307 306 306 306 305 305 305 305 305 305 305 306 306 307 308 310 310 310 311 311 311 312 313 313 314 316 317 318 319 320 320 320 320 320 320 321 321 322 322 322 322 321 321 323 325 326 326 326 327 328 329 328 329 330 330 329 330 330 330 329 330 330
308 309 309 309 308 308 308 308 308 308 308 307 306 305 304 304 305 304 304 304 304 304 304 305 305 305 307 308 307 307 308 307 307 309 309 310 311 313 313 315 317 317 317 317 317 317 318 319 319 319 320 321 322 321 321 322 323 324 324 325 326 326 327 327 327 328 328 328 329 329 329 329 329 328
309 308 308 307 306 306 306 305 305 305 305 305 305 305 304 303 303 303 303 304 304 303 303 304 303 303 305 305 305 305 306 305 305 306 306 306 308 309 310 312 313 313 312 313 313 314 315 316 317 318 319 319 320 321 322 322 322 323 323 324 325 326 326 326 326 326 326 326 327 327 328 328 328 327
307 306 306 305 304 304 304 304 304 304 304 304 304 304 304 303 303 302 302 303 304 303 303 303 303 302 303 304 303 303 303 303 304 304 304 304 305 306 306 308 308 307 307 309 310 311 312 314 315 315 315 314 315 318 321 322 321 319 318 319 321 321 320 320 321 321 320 322 324 325 325 326 326 326
305 305 304 304 304 304 304 304 303 303 303 303 302 303 303 303 302 302 302 302 303 303 303 303 303 302 303 303 303 303 303 303 303 303 303 303 303 303 303 304 304 303 304 306 307 308 310 312 313 312 310 309 309 311 315 318 316 313 313 314 314 313 312 313 315 316 317 319 322 323 323 323 324 325
304 304 304 304 304 303 303 303 303 303 303 302 301 301 302 302 302 301 301 301 301 302 302 303 302 301 302 303 303 302 302 303 303 303 303 303 303 302 302 302 302 301 302 303 305 305 307 310 310 308 307 307 307 307 309 310 310 309 310 311 310 309 310 312 314 315 317 318 320 322 323 323 323 324
303 303 303 303 303 302 302 302 302 302 302 302 301 301 301 302 302 301 300 300 300 300 301 302 301 301 301 302 302 301 302 302 302 302 302 303 302 302 302 301 301 301 301 302 303 304 305 307 307 305 304 304 305 305 305 305 306 307 307 308 308 309 310 313 315 317 316 316 318 319 320 320 321 320
303 303 302 302 302 302 301 301 301 301 300 300 301 300 299 301 302 301 299 300 300 300 300 300 300 300 300 300 301 301 301 301 301 301 302 302 302 302 302 301 301 301 302 303 303 303 304 305 305 304 303 302 303 304 303 303 304 306 307 307 307 308 310 313 315 315 313 313 313 314 313 314 315 315
303 302 302 302 301 301 301 300 300 300 300 299 300 299 299 299 300 299 298 300 300 299 298 298 298 298 298 299 299 300 300 300 300 300 300 300 301 301 301 301 301 301 302 302 302 303 303 304 304 303 303 302 302 303 303 302 303 304 306 306 305 307 310 311 311 309 309 309 309 309 309 309 310 311
303 302 302 302 301 301 301 300 300 299 299 299 299 298 298 299 299 297 297 299 300 299 297 296 296 297 297 297 297 298 298 298 299 299 299 299 300 300 300 300 300 301 301 301 301 302 302 303 302 302 302 302 303 303 303 303 303 303 303 303 303 305 308 309 306 305 305 306 306 307 308 307 307 308
302 302 302 302 301 301 301 300 300 299 299 298 298 298 298 298 298 297 296 298 299 298 296 295 295 296 296 296 295 295 296 297 298 298 298 298 299 299 299 299 300 300 300 300 301 301 301 301 301 300 301 302 303 303 302 301 302 302 302 302 302 303 304 304 303 303 304 305 305 305 306 305 306 307
302 302 302 301 301 301 301 301 300 299 299 298 298 298 297 297 297 297 296 296 297 297 296 294 294 294 295 294 293 293 294 296 297 297 297 297 298 298 298 299 299 299 299 299 300 300 300 300 299 298 299 301 302 302 301 300 301 301 302 301 301 302 303 303 303 302 303 303 303 304 303 304 305 307
302 302 302 301 301 301 301 300 300 300 299 299 298 298 297 297 297 296 296 295 296 296 295 294 293 294 294 292 292 292 294 295 296 296 296 297 297 297 298 298 298 298 298 299 299 299 299 298 297 297 298 300 301 300 300 300 301 301 301 301 301 302 303 303 302 302 302 302 302 302 303 303 304 306
303 302 302 302 301 301 301 301 300 300 300 299 299 298 298 297 296 296 296 295 295 295 294 294 294 293 292 291 291 292 294 294 294 295 296 296 296 296 297 298 297 298 298 298 298 299 298 297 297 297 298 298 299 299 300 300 300 300 300 300 301 301 302 302 302 301 301 302 302 303 303 303 304 304
302 302 302 302 302 301 301 301 301 300 300 300 300 299 298 298 297 296 296 295 294 294 294 294 294 293 291 291 291 293 293 293 294 295 295 295 295 295 296 297 297 297 297 297 298 298 297 297 297 297 297 297 298 298 300 300 300 300 300 300 300 301 301 301 301 300 301 301 302 303 304 303 303 303
Wind_Speed
19 21 22 21 20 19 17 15 13 14 14 13 12 12 17 16 6 3 3 5 9 15 18 19 22 25 24 23 24 25 24 21 20 22 23 23 23 23 22 22 22 22 21 22 24 26 25 25 25 28 31 33 31 30 29 29 29 29 29 28 28 28 27 28 28 28 29 29 29 28 29 29 28 29
17 21 23 23 17 16 16 14 13 13 13 13 13 14 22 24 13 4 3 5 7 11 17 20 21 23 24 24 27 27 25 21 20 21 23 23 22 21 21 21 22 23 23 22 23 25 26 25 25 26 30 33 33 31 30 29 29 30 30 30 30 30 30 30 30 30 30 30 31 30 30 31 29 29
15 20 25 25 20 16 15 14 14 15 13 13 14 15 18 19 14 10 6 3 5 8 11 14 14 16 20 24 27 26 23 21 20 22 23 23 23 21 20 21 22 22 23 23 23 24 26 27 26 26 28 32 33 32 31 31 30 31 31 32 32 32 32 32 32 32 31 31 31 31 31 32 31 30
16 20 27 28 22 18 16 16 16 17 16 16 17 16 16 15 14 15 11 5 6 11 12 10 8 9 14 20 24 24 21 20 21 22 23 23 23 22 21 20 21 22 22 23 24 24 25 27 28 28 28 31 33 33 31 32 32 32 32 33 33 34 34 34 34 33 33 32 32 32 32 33 32 31
13 17 27 30 24 19 19 17 17 20 20 19 20 19 18 17 16 16 15 10 8 13 16 15 13 12 11 12 18 21 22 23 22 24 24 23 22 22 21 20 21 21 22 22 24 25 25 26 28 30 30 31 33 35 34 33 34 33 33 34 34 35 36 36 36 35 35 34 34 34 34 34 33 33
11 12 20 25 20 17 19 17 16 17 17 17 19 19 19 20 19 17 16 14 11 12 16 16 17 17 16 15 15 17 22 25 24 24 25 24 23 22 22 22 22 22 22 23 24 25 26 26 27 29 30 32 33 35 36 36 35 35 35 35 35 36 37 37 37 37 37 37 37 36 36 36 35 35
14 13 12 16 15 16 18 17 16 15 15 15 15 15 15 16 18 18 18 17 14 13 14 15 16 16 17 18 18 17 17 20 24 26 26 24 23 23 23 23 23 23 22 23 24 26 26 27 28 28 29 31 32 34 36 37 37 37 37 37 37 37 38 38 38 39 39 39 39 39 38 38 37 37
14 14 13 14 16 17 16 12 10 11 11 11 13 13 12 13 16 17 17 16 14 11 10 11 12 12 14 16 17 17 17 16 19 25 27 25 23 22 22 23 23 22 20 20 22 23 25 27 28 29 30 30 32 33 35 36 37 38 39 40 40 39 39 39 39 39 40 41 42 41 41 41 40 40
14 13 15 17 14 11 10 8 7 7 8 9 12 14 13 13 14 16 16 17 17 12 8 11 13 13 14 14 13 14 17 17 18 21 24 24 22 22 22 22 22 21 20 19 20 21 22 24 25 28 30 31 32 33 34 36 37 39 40 40 41 41 41 41 41 41 41 42 43 44 44 43 43 43
14 12 14 18 15 7 7 8 7 8 9 10 13 13 12 12 12 12 12 16 19 15 10 11 14 14 13 15 17 15 14 15 16 20 22 22 22 22 23 23 23 22 22 21 21 22 22 23 24 25 27 30 32 34 35 36 37 39 40 41 41 41 42 43 44 44 44 44 44 45 45 46 46 46
13 11 12 16 16 8 5 7 8 8 9 11 12 11 10 10 10 11 13 15 17 15 11 11 12 13 13 14 16 17 16 19 18 17 18 18 20 23 25 25 24 23 23 22 22 22 22 22 23 24 25 28 30 33 36 38 39 40 41 42 42 42 42 43 44 44 45 45 46 46 46 47 47 47
11 11 11 14 14 9 5 7 7 8 9 11 12 11 9 6 6 9 12 14 14 12 12 13 11 10 13 15 16 16 16 18 20 17 15 15 17 19 22 25 25 25 24 23 23 23 22 22 23 24 26 28 29 32 34 37 40 43 44 44 45 45 45 44 44 44 44 45 45 46 47 47 48 48
9 10 11 12 12 8 6 7 7 7 8 9 10 10 9 7 6 6 8 10 11 10 11 12 10 9 12 14 15 16 16 18 20 19 16 18 19 18 17 18 21 22 23 22 22 22 22 23 23 25 27 28 29 31 33 36 40 43 46 48 48 49 49 48 48 48 47 47 46 46 47 47 48 48
8 8 10 11 11 9 9 10 8 7 8 9 11 10 10 11 9 8 7 8 9 11 12 11 9 9 12 14 15 16 17 17 19 19 19 19 19 17 17 15 16 18 19 18 18 19 20 21 23 26 27 27 28 30 33 35 38 40 43 47 51 52 52 52 52 52 52 51 50 50 49 49 49 49
9 9 11 12 12 10 9 8 7 6 8 9 10 11 11 12 12 12 12 12 11 11 12 11 10 10 13 15 13 15 17 17 18 21 20 19 16 13 13 15 15 16 17 18 19 21 22 22 24 27 29 29 29 31 33 34 36 38 39 43 48 53 56 56 56 56 55 55 55 54 53 53 53 52
7 8 10 12 12 11 11 10 9 9 9 9 9 9 9 11 13 15 16 16 16 16 14 13 13 14 16 16 13 14 15 16 18 19 18 16 14 11 10 15 20 19 16 15 19 24 26 26 27 30 33 31 30 32 35 36 36 38 38 39 42 47 52 57 59 59 59 58 58 58 57 57 56 56
7 9 10 11 10 10 11 12 10 8 9 11 11 10 10 12 14 15 16 17 18 18 18 17 18 19 18 15 12 11 12 13 15 16 16 14 11 11 14 18 22 22 20 18 19 22 27 28 29 33 35 34 32 33 35 37 38 39 40 39 39 41 44 48 53 57 60 61 61 61 60 59 59 58
9 11 11 11 11 8 4 3 4 5 6 8 9 8 9 11 12 13 14 15 16 18 19 21 23 24 22 19 17 14 13 14 14 15 16 15 12 14 18 20 21 23 25 23 18 19 27 28 26 32 37 36 36 37 37 38 40 41 43 42 40 39 38 39 42 45 50 55 59 61 63 62 62 61
8 10 10 10 9 5 3 4 4 3 4 5 6 6 8 10 12 13 14 14 15 17 18 20 22 22 21 21 22 20 17 17 18 18 17 16 16 18 20 22 23 25 27 26 19 18 29 30 25 31 39 38 37 38 37 38 41 43 45 45 44 43 41 38 37 37 39 42 46 51 56 58 61 62
8 9 10 9 6 4 4 6 7 7 6 4 4 6 8 11 13 15 15 15 15 15 16 18 19 20 19 19 20 19 17 17 20 21 20 19 20 20 20 21 24 26 28 28 23 22 30 33 28 29 36 37 36 37 38 38 40 42 44 44 44 45 44 41 40 38 38 38 39 41 44 47 50 53
4 5 6 6 5 5 6 7 7 8 8 8 8 8 9 10 12 13 14 14 12 11 10 11 14 17 18 19 21 21 20 19 20 21 19 18 18 17 15 16 21 26 27 27 25 25 29 35 33 31 33 36 35 34 36 38 40 41 43 43 43 43 44 43 43 42 41 40 38 39 40 41 42 43
5 5 5 6 7 7 6 6 7 8 9 9 9 9 10 12 12 13 13 14 15 15 13 11 11 12 13 15 17 19 20 19 20 23 22 21 20 18 16 17 20 23 25 26 25 24 26 31 34 30 28 30 33 33 33 36 38 37 35 36 38 38 39 41 42 42 41 41 40 40 39 39 40 42
7 5 6 9 11 11 10 9 9 9 9 9 9 10 10 10 11 12 14 16 19 21 21 20 19 18 18 18 17 17 16 15 16 19 22 23 24 22 20 21 17 15 18 22 24 24 25 29 32 29 20 16 21 28 29 28 29 27 25 27 30 32 35 38 41 41 42 42 42 42 40 39 40 43
9 9 9 12 13 13 13 12 12 11 11 11 10 9 8 7 10 13 16 18 20 22 24 23 22 21 20 20 18 17 16 15 15 17 18 21 24 25 24 23 19 15 17 20 22 22 21 22 25 27 21 12 12 21 28 28 27 26 27 27 27 29 31 33 36 38 39 41 42 43 43 42 43 46
11 12 13 15 15 13 13 12 11 11 10 9 9 9 8 10 14 16 17 18 18 19 21 21 20 19 18 18 18 17 17 17 17 18 16 15 17 20 22 21 21 21 21 21 22 24 23 21 21 22 21 17 13 16 24 29 29 28 29 30 29 29 28 29 32 33 33 35 37 40 42 43 44 47
12 13 13 14 13 12 11 11 10 10 9 8 8 9 10 12 14 15 15 16 15 14 14 14 15 16 16 17 18 18 18 19 19 20 20 18 17 18 20 20 20 23 24 24 25 26 26 26 25 23 22 21 19 18 19 24 28 30 31 32 33 33 32 31 34 36 34 34 35 37 38 39 41 45
11 11 12 12 12 12 13 14 15 15 14 13 12 11 11 11 11 10 10 12 12 12 12 13 13 13 13 14 15 16 16 17 18 19 20 20 20 21 21 22 21 22 24 26 26 26 26 26 26 24 24 25 23 20 18 21 26 30 32 34 36 37 36 35 38 41 41 40 39 37 35 34 36 40
9 10 11 13 13 14 15 16 17 18 18 16 15 15 14 11 10 10 8 9 10 10 10 11 11 11 12 13 13 15 16 17 18 18 18 19 19 19 20 21 20 21 22 23 22 23 24 25 25 23 23 24 22 19 18 20 25 28 30 32 34 35 36 36 38 40 41 41 38 34 30 31 33 34
7 8 9 11 13 15 15 16 16 16 18 18 17 17 18 16 15 14 10 9 10 10 11 11 11 12 14 14 15 17 18 18 18 18 18 19 20 21 21 22 22 22 22 20 18 18 19 20 21 20 20 20 20 20 21 24 28 29 27 26 29 33 36 36 36 37 36 34 32 31 30 30 29 28
7 6 5 5 8 10 12 15 16 14 16 18 18 17 18 19 20 19 15 13 14 14 13 14 14 14 14 14 15 16 16 15 16 17 17 18 19 20 20 20 20 20 19 16 16 17 19 20 20 19 20 19 19 20 21 23 26 26 24 25 30 33 34 32 31 32 33 32 31 32 33 32 30 30
6 5 4 3 5 6 5 9 13 13 13 16 17 17 17 17 19 19 17 16 16 16 14 14 16 16 15 15 16 16 15 16 17 17 17 17 17 18 19 18 18 17 17 16 16 17 17 18 18 18 19 20 21 22 22 21 22 23 24 26 28 28 28 29 29 32 35 36 37 38 37 34 32 32
5 3 4 6 9 10 9 10 14 15 15 16 16 17 18 17 17 17 17 16 17 17 16 15 16 17 16 16 17 17 16 17 18 18 18 17 17 17 17 16 15 17 18 19 19 18 17 17 18 18 18 18 20 22 22 22 22 22 22 23 24 25 28 29 30 33 35 35 36 37 36 33 30 29
11 10 10 12 15 17 16 16 16 16 16 16 15 16 17 18 18 18 18 17 16 17 18 16 17 18 16 15 17 16 16 18 18 17 18 18 17 17 17 15 15 17 19 20 21 21 20 20 19 19 18 17 17 20 21 23 21 20 19 20 20 22 25 25 25 27 29 30 32 32 32 31 29 28
14 14 14 15 15 16 16 15 15 15 15 15 15 15 15 17 18 18 18 18 16 16 17 16 17 18 16 15 17 17 17 19 19 17 18 18 17 17 18 16 16 18 19 20 21 21 22 22 21 19 19 19 17 16 15 15 16 19 20 19 18 19 22 23 23 23 23 23 23 23 24 25 25 25
14 14 14 13 13 12 13 13 13 14 14 14 15 15 14 15 16 17 18 18 16 16 16 15 16 18 17 16 17 18 18 19 18 17 18 18 17 17 17 16 17 20 20 20 21 22 23 22 20 21 21 20 17 15 13 13 17 22 22 21 21 23 24 24 23 23 22 20 17 16 19 23 25 25
13 13 12 12 12 12 12 12 12 12 13 13 14 14 14 14 14 15 17 17 15 15 15 15 16 18 17 16 17 18 18 18 18 18 18 18 17 17 17 16 17 20 21 20 21 23 23 20 18 19 17 14 11 10 12 16 19 20 20 22 24 26 26 25 23 22 21 19 17 15 16 19 22 21
12 12 11 11 11 12 12 12 12 12 12 12 12 13 13 12 12 13 15 15 15 15 15 14 15 17 17 16 17 18 18 18 18 18 18 18 17 17 17 17 18 20 21 20 20 22 22 19 18 17 14 9 5 5 12 22 25 20 17 21 25 25 24 24 23 21 21 21 19 17 17 18 19 19
10 10 11 11 11 11 11 11 11 12 12 12 12 12 13 12 11 12 14 15 14 15 15 15 16 17 17 16 17 17 18 18 18 18 18 18 18 18 18 19 20 21 20 19 20 21 20 17 16 17 13 8 5 5 10 20 26 24 20 20 23 23 22 22 21 21 22 22 21 21 21 21 21 21
10 10 11 11 11 11 11 12 12 12 12 12 12 12 13 13 12 13 15 14 13 14 15 16 16 16 16 17 17 17 17 18 18 18 18 19 19 19 19 20 22 21 20 20 20 20 19 17 18 20 18 13 11 12 14 19 26 26 22 20 22 22 19 17 18 20 21 23 24 25 25 25 24 22
10 10 10 11 11 11 11 11 12 13 13 13 13 13 13 12 12 15 16 14 12 14 15 16 16 16 16 16 17 17 18 18 17 17 18 19 19 19 20 21 21 20 19 19 20 19 19 19 21 23 24 21 19 19 20 20 22 24 24 24 23 20 16 16 19 21 22 22 22 23 25 26 25 23
10 10 10 10 10 11 10 11 11 12 12 12 12 12 12 12 12 14 15 13 12 13 15 16 16 16 16 16 17 18 18 18 18 17 19 19 19 19 20 20 20 19 19 19 19 19 20 21 23 24 23 22 20 19 16 13 14 20 26 29 26 21 19 19 19 19 20 20 20 20 20 21 21 20
9 10 10 10 11 10 9 10 10 11 11 12 12 12 12 12 11 12 13 13 12 12 14 16 17 16 15 17 18 18 18 18 18 18 19 19 19 21 20 19 19 20 19 18 20 21 21 23 26 26 23 22 21 16 12 11 14 19 25 29 28 26 22 18 15 15 17 18 18 18 17 15 13 12
9 10 10 11 11 11 10 10 10 11 11 11 12 12 12 11 11 11 12 12 12 12 14 16 16 16 16 19 19 18 16 17 18 19 20 20 20 21 21 20 20 20 19 20 22 23 22 24 28 27 24 23 22 19 17 18 18 20 24 27 29 28 24 17 15 18 19 18 16 16 14 12 9 8
6 7 7 7 9 10 9 9 10 11 11 12 12 13 12 11 11 12 12 12 12 12 14 15 15 15 17 20 20 18 16 17 18 19 19 20 20 20 21 21 21 21 21 22 22 22 23 26 27 25 23 23 24 24 22 20 19 22 26 26 27 27 22 16 17 22 22 17 14 13 12 10 9 11
5 5 5 5 7 7 7 8 9 10 10 11 11 12 12 12 13 12 12 12 13 13 14 14 14 16 19 20 18 17 17 18 19 19 19 20 21 21 20 20 21 22 22 22 21 23 25 27 26 24 23 25 26 25 22 20 21 24 26 25 26 25 19 14 18 23 22 18 16 13 10 9 9 10
Wind_Direction
243 246 262 251 224 218 220 218 217 207 202 205 209 230 251 254 237 190 219 218 223 224 215 212 216 216 218 220 218 218 224 227 225 226 231 235 237 236 236 236 236 235 234 230 221 217 219 221 223 222 217 214 216 220 224 226 225 224 224 225 227 227 227 226 226 228 229 229 228 228 230 233 233 232
250 242 257 261 236 215 215 218 224 222 211 210 211 218 237 247 251 248 245 225 226 228 218 215 218 216 214 216 215 217 222 225 225 227 230 235 240 242 239 236 237 235 232 233 227 218 218 224 228 227 222 219 218 222 225 227 226 226 226 226 227 228 228 229 228 230 232 232 232 232 233 236 238 236
279 250 246 251 237 214 211 218 229 228 219 222 228 226 233 245 257 266 273 249 242 248 232 229 229 212 206 210 210 211 216 219 223 228 230 234 238 244 244 239 237 236 233 232 231 224 218 220 227 230 227 223 220 221 227 229 228 228 229 229 229 229 230 231 232 232 234 235 234 234 235 238 241 240
304 270 251 244 233 220 217 221 231 234 230 234 238 239 243 250 258 260 261 254 250 254 250 255 259 227 212 208 202 202 212 218 222 227 232 234 233 238 244 241 236 235 235 233 231 230 224 219 221 226 229 228 222 221 226 231 232 231 232 233 232 232 233 234 235 235 236 237 236 235 236 239 242 242
311 282 255 243 234 227 224 225 232 234 234 237 238 240 242 245 253 257 254 250 254 257 255 258 259 252 248 231 208 204 211 217 221 224 228 231 230 233 240 240 237 234 235 235 232 231 230 226 223 224 228 230 228 226 227 231 235 236 236 237 236 236 236 237 237 238 239 239 239 238 238 239 241 242
316 298 257 242 237 232 231 235 237 234 235 236 237 239 240 242 247 251 252 248 244 250 252 255 257 255 258 259 243 222 215 217 219 217 218 223 226 233 239 241 242 239 237 239 237 235 233 231 229 228 228 230 232 232 231 232 236 239 240 241 241 240 239 239 240 240 241 241 241 241 240 240 241 242
305 308 268 241 238 235 235 241 245 245 247 249 250 252 254 257 257 258 262 260 253 250 248 245 248 248 247 252 257 253 239 228 220 215 213 214 220 228 235 240 245 245 243 241 239 238 237 236 235 233 233 233 234 236 236 236 236 239 243 244 245 244 243 242 243 242 242 242 243 243 243 243 242 243
289 296 279 252 239 233 237 244 250 253 254 259 266 269 279 294 295 296 297 291 281 281 284 272 262 263 260 251 249 252 253 245 227 218 214 213 216 223 228 235 240 243 245 244 242 241 240 239 238 237 237 237 236 237 239 239 239 241 244 246 247 247 247 246 246 245 245 245 245 245 245 245 245 244
274 281 281 269 251 235 245 260 273 274 262 260 264 266 275 288 296 305 311 302 286 277 288 291 284 292 301 293 276 258 249 244 231 220 217 216 218 223 226 230 236 239 242 244 246 245 243 242 242 241 241 241 240 240 240 241 242 242 244 247 248 250 250 250 250 249 248 247 247 247 247 247 247 246
267 275 281 278 270 253 251 265 283 285 271 266 267 267 271 273 276 281 287 291 285 270 257 263 263 268 285 295 294 288 281 271 245 226 224 225 223 225 226 226 230 236 241 243 245 246 244 244 244 244 245 245 245 245 244 244 244 245 246 247 248 249 250 251 252 252 251 250 249 249 248 248 248 248
259 272 282 279 274 267 261 265 269 273 275 279 281 279 281 282 276 268 264 270 277 273 265 265 265 264 268 275 279 280 289 299 286 257 245 242 235 230 229 226 226 231 238 245 246 246 247 250 250 250 249 249 250 250 249 249 248 247 247 248 248 248 248 249 250 251 252 252 252 251 251 250 250 249
246 259 270 273 272 270 270 268 263 269 280 286 284 277 279 291 280 261 258 260 267 271 267 263 266 272 273 275 279 274 267 274 281 281 281 279 265 245 233 229 228 228 233 241 244 241 242 245 249 251 251 251 252 252 252 252 252 251 250 249 249 249 249 249 249 249 250 250 251 252 252 252 252 251
244 249 253 260 267 269 275 278 276 279 281 283 281 270 262 268 267 257 259 263 269 271 263 259 259 260 262 265 272 274 259 249 256 267 280 285 280 272 258 240 230 228 231 236 239 239 238 241 245 249 250 252 255 255 255 255 254 253 252 251 251 251 251 251 250 250 250 250 250 251 251 252 252 253
249 248 250 256 261 264 275 280 280 287 288 283 281 273 264 263 262 263 265 265 270 269 261 260 258 252 257 256 253 257 258 255 256 262 268 271 273 278 278 263 240 230 231 231 231 234 238 242 245 247 249 253 255 256 257 259 259 258 256 254 253 252 252 252 252 252 252 252 252 252 252 252 253 253
256 252 256 261 259 259 266 270 274 290 296 294 289 279 272 267 260 260 258 253 257 261 258 257 253 248 256 258 251 253 261 265 265 265 267 271 278 287 292 288 276 254 239 234 233 237 241 242 244 246 251 254 255 258 262 265 265 264 262 261 257 254 252 251 252 252 252 253 253 253 254 254 255 255
280 273 272 268 258 252 253 257 267 275 274 280 289 287 281 276 271 266 261 255 254 254 256 259 255 251 256 260 257 259 265 268 268 266 264 267 278 281 271 274 277 274 267 254 247 247 247 246 247 250 254 256 258 263 268 269 268 267 265 265 263 259 255 253 252 252 253 253 254 254 255 255 256 257
311 313 312 300 282 267 255 252 260 268 261 260 269 275 278 279 279 276 270 266 262 259 257 257 257 258 262 266 267 271 277 270 261 264 271 274 273 263 254 257 264 272 275 267 259 258 256 252 251 254 260 263 263 264 266 267 267 267 266 266 266 264 261 258 256 254 254 255 255 256 256 256 256 257
314 315 317 318 316 312 294 263 261 262 254 251 256 266 275 281 285 287 284 279 275 269 262 257 259 263 266 268 271 278 287 278 265 270 281 284 278 271 272 273 272 273 271 263 259 265 266 262 256 258 265 267 264 263 264 264 264 265 265 266 266 266 265 264 262 260 259 258 257 257 257 257 258 258
307 305 300 305 312 319 2 22 2 326 284 263 261 270 281 288 290 292 296 296 289 282 275 272 273 275 276 276 275 277 280 277 278 283 286 289 289 283 280 278 275 273 270 262 251 255 267 265 253 255 264 265 261 261 264 264 263 263 263 264 264 265 264 264 265 264 264 264 263 260 259 259 259 260
290 298 297 306 324 347 356 351 346 342 340 335 317 300 294 294 293 292 296 300 300 296 292 290 290 289 289 287 285 286 285 280 283 286 286 286 287 283 279 278 274 271 270 264 249 243 259 263 253 251 261 262 259 260 262 263 262 262 262 262 262 263 262 262 263 264 265 268 268 266 264 261 261 262
298 318 317 323 346 1 350 332 324 328 339 346 343 331 316 304 302 303 301 297 297 299 301 301 298 295 293 289 285 284 282 280 281 279 275 273 271 263 260 264 267 267 268 268 258 242 248 259 258 253 257 259 258 258 259 259 260 260 261 262 261 261 261 260 261 263 264 266 266 267 268 266 264 264
34 30 22 23 20 12 356 331 315 315 323 329 326 321 314 307 304 306 304 297 290 287 289 294 296 299 304 303 299 290 281 279 277 272 270 270 264 255 254 261 269 271 270 270 264 246 242 255 259 256 258 261 259 258 258 258 259 262 267 269 266 263 263 262 262 263 265 265 264 265 267 268 268 265
36 35 32 31 23 10 358 343 328 321 321 325 323 316 312 306 298 294 294 297 297 294 292 293 295 299 303 307 311 308 298 290 283 276 274 271 261 253 254 259 264 270 271 269 266 255 248 253 256 254 256 265 265 266 266 264 264 269 280 288 283 274 271 270 267 266 267 266 265 264 264 265 266 264
22 34 22 9 5 359 350 340 333 328 322 320 323 325 321 302 288 287 289 294 298 298 297 298 301 305 308 309 309 309 304 301 296 288 281 273 265 257 252 253 254 257 263 264 266 271 271 267 262 259 258 261 269 272 273 272 270 269 271 275 276 275 278 281 278 273 270 267 265 264 264 264 264 261
16 25 12 359 358 356 347 340 338 335 327 322 323 322 312 295 288 291 296 301 306 305 301 297 296 299 305 308 307 306 305 306 308 307 304 298 285 270 260 260 262 264 270 273 277 288 295 294 292 287 281 277 271 268 273 278 279 276 272 270 268 269 275 284 288 286 280 274 271 268 266 266 264 262
9 11 6 2 3 2 2 8 14 12 6 358 347 332 320 310 303 298 299 308 316 318 315 310 303 300 301 302 304 305 306 306 308 312 314 315 311 301 293 288 278 274 284 296 297 295 292 289 291 293 290 288 285 279 278 281 282 282 280 275 272 273 273 274 280 285 284 281 279 276 273 271 269 266
21 19 17 14 14 21 32 38 37 34 28 22 15 3 350 341 334 326 320 323 326 322 317 313 308 306 305 304 303 303 306 309 311 315 315 313 311 312 311 309 301 294 299 305 302 296 291 286 284 281 276 276 278 278 276 276 279 282 281 277 277 278 278 276 277 280 280 280 280 279 277 275 272 269
44 49 48 42 39 42 47 48 45 40 33 31 30 22 15 14 14 12 9 1 351 339 327 320 316 319 323 322 320 318 320 325 327 326 325 322 318 316 315 312 309 309 312 313 308 301 294 290 290 290 285 279 276 275 274 275 278 279 278 279 279 279 280 281 280 279 280 280 279 275 271 270 269 268
34 42 54 61 57 52 52 52 48 40 32 32 33 26 23 29 30 24 23 20 13 3 356 352 347 341 339 337 334 330 331 335 336 333 331 327 323 320 319 315 310 308 311 315 314 309 304 301 305 309 308 303 295 290 286 283 281 277 274 278 282 283 284 283 281 279 279 276 273 269 265 265 264 265
360 358 18 56 62 59 61 58 50 40 32 33 34 28 25 28 27 25 27 28 22 14 8 4 359 351 346 341 335 332 335 340 343 343 342 336 331 329 326 322 319 318 317 315 312 310 308 310 314 315 313 312 308 303 300 295 290 288 288 286 284 284 284 283 280 279 278 277 276 274 272 269 265 263
336 333 350 14 24 30 51 53 47 43 38 37 36 31 28 27 24 24 28 31 25 18 12 8 4 1 3 3 357 354 357 358 356 356 355 347 340 338 335 329 327 329 329 325 325 326 323 321 322 318 313 309 303 301 303 297 288 288 291 289 284 280 281 285 285 283 283 283 281 279 277 275 272 267
17 15 17 22 23 26 34 38 36 36 39 40 35 30 30 30 26 23 26 28 23 17 15 13 6 4 7 7 4 2 2 1 1 2 360 353 347 346 346 342 339 340 340 336 334 338 338 334 332 330 325 316 306 302 300 292 284 284 288 292 292 286 284 287 287 287 289 288 282 278 276 274 271 266
57 57 49 45 42 42 43 40 34 31 32 32 29 27 28 28 26 24 24 23 17 13 15 15 9 8 9 6 3 3 0 359 2 2 359 356 355 353 352 350 349 348 343 337 336 338 339 340 341 340 337 330 321 311 300 291 293 302 307 308 305 298 296 298 297 296 298 295 287 282 277 273 269 264
60 56 52 50 48 46 43 39 33 29 27 25 23 24 24 23 23 20 18 18 14 8 11 12 9 9 10 6 4 3 359 358 2 2 359 0 2 360 356 353 352 349 342 336 337 340 339 340 344 346 344 345 344 334 318 311 324 337 335 328 323 319 317 316 313 310 310 305 295 287 282 281 277 269
53 53 51 47 45 44 40 36 31 27 24 20 19 19 18 20 21 16 12 12 10 5 6 7 6 7 6 3 1 360 356 357 359 359 360 4 5 2 360 355 349 345 342 338 338 339 339 343 352 353 349 350 352 349 345 348 348 344 338 332 331 330 328 326 324 320 318 315 309 296 287 286 282 275
47 48 47 42 40 38 35 32 29 25 22 20 18 16 14 14 16 14 10 9 7 6 7 7 4 4 3 1 358 357 356 356 356 355 358 1 0 358 358 354 349 345 343 340 341 343 342 348 2 2 352 348 350 342 332 333 336 334 329 325 327 330 330 331 334 332 328 327 323 309 292 286 286 287
46 44 43 40 38 35 30 28 26 22 20 19 17 15 12 9 10 12 8 6 6 6 6 5 3 1 0 359 357 356 357 356 353 352 353 354 354 353 350 348 346 345 341 339 343 347 347 351 4 6 356 344 340 325 319 325 333 340 335 322 322 330 335 336 338 340 337 334 333 326 316 308 308 311
43 44 41 37 36 33 30 27 25 21 19 17 16 15 10 4 7 11 7 3 4 6 4 3 2 359 358 358 355 353 354 353 350 350 352 352 351 349 347 344 340 338 337 337 341 345 347 350 355 358 355 347 328 315 318 321 327 341 350 337 326 330 334 333 333 335 334 332 330 328 325 322 319 318
30 38 41 35 30 29 27 24 22 19 15 13 13 11 7 4 8 9 3 359 2 6 5 2 359 357 357 357 355 352 351 349 348 348 349 347 345 344 345 342 336 334 335 337 339 342 345 348 348 344 339 328 314 312 312 308 310 323 338 340 334 332 331 330 333 334 332 329 326 324 323 322 322 323
23 28 36 33 25 23 22 22 19 15 11 10 9 6 3 3 4 2 358 355 359 4 3 360 357 356 355 354 353 350 347 346 345 345 343 342 341 342 344 341 337 337 336 335 336 338 340 342 341 335 327 320 315 315 314 309 308 316 325 332 338 339 333 328 330 328 324 323 324 323 324 325 325 326
22 20 25 29 24 18 17 18 16 11 7 6 3 0 360 360 359 359 359 359 360 359 356 355 355 354 352 351 349 345 342 342 342 341 341 340 338 338 340 340 341 340 337 333 332 334 334 333 332 330 328 325 320 317 316 312 311 315 321 328 336 338 330 324 325 321 317 318 320 317 317 321 324 325
23 18 19 22 19 13 12 16 14 8 5 1 356 355 357 355 354 356 357 358 357 351 348 350 352 350 347 345 343 342 342 341 339 338 338 337 335 334 335 337 338 336 332 329 327 326 326 328 331 334 336 331 324 319 312 303 303 310 318 324 329 330 329 329 331 329 324 320 314 309 308 314 322 327
21 15 14 18 14 7 7 12 9 3 360 357 353 352 352 351 353 355 354 353 351 346 342 344 348 347 343 340 340 341 340 337 334 333 333 333 332 330 329 331 332 330 327 324 323 323 325 329 334 338 337 332 329 323 311 305 309 316 319 320 323 327 330 333 333 332 329 324 317 308 299 294 293 294
17 5 2 7 4 358 359 4 4 359 354 353 351 348 348 350 350 349 348 347 344 340 337 339 341 340 337 337 339 340 338 334 332 330 328 329 329 327 326 326 327 326 325 324 323 325 329 331 333 336 333 329 327 321 312 311 320 323 319 317 320 324 329 334 333 331 332 336 337 323 299 288 293 297
353 349 352 350 347 346 347 349 350 349 346 346 346 344 343 345 344 343 344 341 335 332 333 335 335 333 332 335 338 338 334 332 330 327 325 325 325 324 323 324 325 325 326 325 326 327 328 328 330 333 330 326 325 322 316 318 323 322 319 319 320 321 325 334 337 335 335 342 348 338 314 306 318 322